Flag for U.S.A. Weather past 2 weeks in Cleveland, Tennessee, U.S.A.

Now
69 °F

Clear.


Feels Like: 69 °F
Forecast: 58 / 84 °F
Wind: No wind

Location: Lovell Field

Current Time: Oct 1, 2014 at 11:11:46 PM

Latest Report: Oct 1, 2014 at 10:53 PM


Visibility: 10 mi

Pressure: 30.00 "Hg

Humidity: 76%

Dew point: 61 °F

Location of ClevelandLocation

Historic Weather in Cleveland — Graph

°F

Cleveland temperature yesterday

Maximum temperature yesterday: 84 °F (at 2:53 PM)
Minimum temperature yesterday: 61 °F (at 5:53 AM)
Average temperature yesterday: 71 °F

Past Weeks' High & Low Weather Summary

 TemperatureHumidityPressure
High87 °F (Sep 21, 4:53 PM)97% (Sep 30, 5:53 AM)30.32 "Hg (Sep 30, 5:53 AM)
Low57 °F (Sep 24, 5:53 AM)32% (Sep 18, 3:53 PM)29.87 "Hg (Sep 30, 5:53 PM)
Average71 °F68%30.07 "Hg
* Reported Sep 16 9:53 PM — Oct 1 9:53 PM, Cleveland, Weather by CustomWeather, © 2014

Note: Actual official high and low records may vary slightly from our data, if they occured in-between our weather recording intervals... More about our weather records

Advertising

Cleveland weather history for previous 24 hours

 ConditionsComfort  
Time TempWeatherWind HumidityBarometerVisibility
9:53 PM
Oct 1
70 °FClear.No wind73%29.99 "Hg10 mi
8:53 PM72 °FPassing clouds.No wind66%29.98 "Hg10 mi
7:53 PM77 °FScattered clouds.5 mph54%29.96 "Hg10 mi
6:53 PM81 °FScattered clouds.7 mph45%29.95 "Hg10 mi
5:53 PM84 °FScattered clouds.7 mph38%29.94 "Hg10 mi
4:53 PM85 °FScattered clouds.3 mph36%29.94 "Hg10 mi
3:53 PM85 °FBroken clouds.No wind35%29.95 "Hg10 mi
2:53 PM83 °FBroken clouds.3 mph43%29.96 "Hg10 mi
1:53 PM82 °FBroken clouds.No wind48%29.98 "Hg10 mi
12:53 PM81 °FPartly sunny.No wind51%30.00 "Hg10 mi
11:53 AM77 °FBroken clouds.No wind58%30.01 "Hg10 mi
10:53 AM71 °FBroken clouds.No wind73%30.02 "Hg10 mi
9:53 AM66 °FBroken clouds.No wind84%30.02 "Hg10 mi
8:53 AM63 °FFog.No wind87%30.00 "Hg6 mi
7:53 AM60 °FPartly cloudy.No wind90%29.98 "Hg4 mi
6:53 AM62 °FFog.No wind90%29.96 "Hg4 mi
5:53 AM61 °FFog.No wind90%29.94 "Hg4 mi
4:53 AM62 °FFog.No wind90%29.94 "Hg6 mi
3:53 AM63 °FFog.No wind90%29.92 "Hg6 mi
2:53 AM64 °FClear.No wind87%29.93 "Hg7 mi
1:53 AM64 °FFog.No wind90%29.92 "Hg6 mi
12:53 AM65 °FClear.No wind91%29.92 "Hg7 mi
11:53 PM
Sep 30
67 °FPassing clouds.No wind85%29.93 "Hg10 mi
Weather by CustomWeather, © 2014

See weather overviewHow to use our weather pages